{"data":{"norad_id":66897,"epoch":"2026-05-25T04:00:03.998880Z","epoch_age_seconds":64219,"freshness":"FRESH","line1":"1 66897U 25283V   26145.16671295  .00046296  00000+0  14107-2 0  9992","line2":"2 66897  53.1595  29.0566 0001072  80.4296 201.8989 15.33539583  5707","mean_motion":15.33539583,"eccentricity":0.0001072,"inclination_deg":53.1595,"raan_deg":29.0566,"arg_perigee_deg":80.4296,"mean_anomaly_deg":201.8989,"bstar":0.0014107,"rev_number":570,"period_min":93.900412872486,"perigee_km":464.52816412992,"apogee_km":465.9953888276,"semimajor_km":6843.3987764788,"source":"CELESTRAK","updated_at":"2026-05-25T13:38:21.382253Z"}}